Colby, KS

5:56 AM CST on December 10, 2016 (GMT -0600)
Shaltz

Weather History for KCBK - January, 2013

Change the Weather History Date:

Saturday, January 5, 2013

  Actual Average (KGLD) Record (KGLD)
Temperature  
Mean Temperature 24 °F -  
Max Temperature 37 °F 38 °F 73 °F (2012)
Min Temperature 12 °F 14 °F -14 °F (1942)
Degree Days  
Heating Degree Days 40    
Moisture  
Dew Point 20 °F    
Average Humidity 84    
Maximum Humidity 100    
Minimum Humidity 69    
Precipitation  
Precipitation 0.00 in - - ()
Sea Level Pressure  
Sea Level Pressure 30.13 in    
Wind  
Wind Speed 12 mph (WNW)    
Max Wind Speed 23 mph    
Max Gust Speed 24 mph    
Visibility 10 miles    
Events      
Averages and records for this station are not official NWS values.
T = Trace of Precipitation, MM = Missing Value Source: NWS Daily Summary

Daily Weather History Graph

Daily Weather History Graph

Search for Another Location

Airport or City:

Trip Planner

Search our weather history database for the weather conditions in past years. The results will help you decide how hot, cold, wet, or windy it might be!

Date:

Astronomy

Jan. 05, 2013 Rise Set
Actual Time 8:04 AM CST 5:35 PM CST
Civil Twilight 7:34 AM CST 6:05 PM CST
Nautical Twilight 7:01 AM CST 6:38 PM CST
Astronomical Twilight 6:28 AM CST 7:11 PM CST
Moon 1:14 AM CST (1/5) 12:25 PM CST (1/5)
Length of Visible Light 10h 30m
Length of Day
9h 30m
Last Quarter, 44% of the Moon is Illuminated
Jan 5
Last Quarter
Jan 11
New
Jan 18
First Quarter
Jan 26
Full
Feb 3
Last Quarter

Hourly Weather History & Observations

Time (CST) Temp. Windchill Dew Point Humidity Pressure Visibility Wind Dir Wind Speed Gust Speed Precip Events Conditions
12:15 AM 19.4 °F 10.4 °F 15.8 °F 86% 30.02 in 10.0 mi WSW 6.9 mph - N/A   Clear
12:35 AM 21.2 °F 11.7 °F 17.6 °F 86% 30.02 in 10.0 mi WSW 8.1 mph - N/A   Scattered Clouds
12:55 AM 21.2 °F 10.9 °F 17.6 °F 86% 30.01 in 10.0 mi WSW 9.2 mph - N/A   Scattered Clouds
1:15 AM 19.4 °F 7.9 °F 15.8 °F 86% 30.01 in 10.0 mi West 10.4 mph - N/A   Scattered Clouds
1:35 AM 19.4 °F 7.9 °F 14.0 °F 80% 30.00 in 10.0 mi West 10.4 mph - N/A   Scattered Clouds
1:55 AM 17.6 °F 6.4 °F 14.0 °F 86% 30.00 in 10.0 mi West 9.2 mph - N/A   Clear
2:15 AM 17.6 °F 9.3 °F 14.0 °F 86% 30.00 in 10.0 mi WSW 5.8 mph - N/A   Scattered Clouds
2:35 AM 15.8 °F 4.2 °F 12.2 °F 86% 30.00 in 10.0 mi West 9.2 mph - N/A   Clear
2:55 AM 14.0 °F 1.2 °F 12.2 °F 93% 30.01 in 10.0 mi West 10.4 mph - N/A   Clear
3:15 AM 14.0 °F 2.9 °F 12.2 °F 93% 30.01 in 10.0 mi West 8.1 mph - N/A   Clear
3:35 AM 14.0 °F 1.2 °F 10.4 °F 86% 30.01 in 10.0 mi West 10.4 mph - N/A   Clear
3:55 AM 12.2 °F -0.2 °F 10.4 °F 92% 30.00 in 10.0 mi West 9.2 mph - N/A   Clear
4:15 AM 12.2 °F -0.2 °F 10.4 °F 92% 29.99 in 10.0 mi West 9.2 mph - N/A   Clear
4:35 AM 12.2 °F -3.1 °F 10.4 °F 92% 30.00 in 10.0 mi West 13.8 mph - N/A   Clear
4:55 AM 14.0 °F 1.2 °F 10.4 °F 86% 29.99 in 10.0 mi West 10.4 mph - N/A   Clear
5:15 AM 15.8 °F 0.9 °F 12.2 °F 86% 30.00 in 10.0 mi WNW 15.0 mph - N/A   Clear
5:35 AM 17.6 °F 3.2 °F 12.2 °F 79% 30.00 in 10.0 mi WNW 15.0 mph - N/A   Clear
5:55 AM 17.6 °F 5.0 °F 12.2 °F 79% 29.99 in 10.0 mi WNW 11.5 mph - N/A   Clear
6:35 AM 17.6 °F 2.7 °F 12.2 °F 79% 30.02 in 10.0 mi WNW 16.1 mph - N/A   Clear
6:55 AM 19.4 °F 4.1 °F 14.0 °F 80% 30.02 in 10.0 mi WNW 18.4 mph - N/A   Clear
7:15 AM 19.4 °F 2.8 °F 14.0 °F 80% 30.03 in 10.0 mi WNW 21.9 mph - N/A   Clear
7:35 AM 21.2 °F 7.3 °F 14.0 °F 74% 30.04 in 10.0 mi WNW 16.1 mph - N/A   Clear
7:55 AM 21.2 °F 5.6 °F 15.8 °F 80% 30.05 in 10.0 mi WNW 20.7 mph - N/A   Clear
8:35 AM 21.2 °F 6.8 °F 14.0 °F 74% 30.07 in 10.0 mi NW 17.3 mph - N/A   Clear
8:55 AM 21.2 °F 7.3 °F 14.0 °F 74% 30.08 in 10.0 mi NW 16.1 mph - N/A   Clear
9:15 AM 23.0 °F 7.2 °F 17.6 °F 80% 30.09 in 10.0 mi NW 23.0 mph - N/A   Clear
9:35 AM 24.8 °F 10.7 °F 17.6 °F 74% 30.11 in 10.0 mi NW 19.6 mph 24.2 mph N/A   Clear
9:55 AM 26.6 °F 13.4 °F 19.4 °F 74% 30.11 in 10.0 mi NW 18.4 mph 23.0 mph N/A   Clear
10:15 AM 28.4 °F 16.2 °F 21.2 °F 74% 30.13 in 10.0 mi NW 17.3 mph - N/A   Clear
10:35 AM 30.2 °F 18.5 °F 21.2 °F 69% 30.14 in 10.0 mi NW 17.3 mph - N/A   Clear
10:55 AM 30.2 °F 19.3 °F 23.0 °F 75% 30.15 in 10.0 mi NW 15.0 mph - N/A   Clear
11:15 AM 32.0 °F 21.2 °F 23.0 °F 69% 30.15 in 10.0 mi NW 16.1 mph - N/A   Clear
11:35 AM 32.0 °F 20.1 °F 26.6 °F 80% 30.15 in 10.0 mi NW 19.6 mph - N/A   Clear
11:55 AM 32.0 °F 20.5 °F 26.6 °F 80% 30.15 in 10.0 mi NW 18.4 mph - N/A   Clear
12:15 PM 33.8 °F 22.8 °F 26.6 °F 75% 30.15 in 10.0 mi NW 18.4 mph - N/A   Clear
12:35 PM 33.8 °F 23.5 °F 28.4 °F 81% 30.16 in 10.0 mi NW 16.1 mph - N/A   Clear
12:55 PM 35.6 °F 26.6 °F 28.4 °F 75% 30.15 in 10.0 mi NW 13.8 mph - N/A   Clear
1:35 PM 35.6 °F 25.9 °F 28.4 °F 75% 30.15 in 10.0 mi NW 16.1 mph - N/A   Clear
1:55 PM 35.6 °F 26.2 °F 30.2 °F 81% 30.16 in 10.0 mi WNW 15.0 mph - N/A   Clear
2:15 PM 37.4 °F 28.2 °F 30.2 °F 75% 30.16 in 10.0 mi WNW 16.1 mph - N/A   Clear
2:55 PM 37.4 °F 27.8 °F 30.2 °F 75% 30.17 in 10.0 mi WNW 17.3 mph - N/A   Clear
3:15 PM 37.4 °F 29.3 °F 30.2 °F 75% 30.18 in 10.0 mi WNW 12.7 mph 16.1 mph N/A   Clear
3:35 PM 37.4 °F 29.3 °F 30.2 °F 75% 30.18 in 10.0 mi WNW 12.7 mph - N/A   Clear
4:15 PM 37.4 °F 29.3 °F 32.0 °F 81% 30.20 in 10.0 mi WNW 12.7 mph - N/A   Clear
4:55 PM 35.6 °F 26.2 °F 30.2 °F 81% 30.20 in 10.0 mi WNW 15.0 mph 19.6 mph N/A   Clear
5:15 PM 35.6 °F 26.2 °F 30.2 °F 81% 30.21 in 10.0 mi WNW 15.0 mph - N/A   Clear
5:35 PM 33.8 °F 25.8 °F 30.2 °F 87% 30.22 in 10.0 mi West 10.4 mph - N/A   Clear
6:15 PM 30.2 °F 22.6 °F 26.6 °F 86% 30.24 in 10.0 mi West 8.1 mph - N/A   Clear
6:55 PM 26.6 °F 16.8 °F 23.0 °F 86% 30.25 in 10.0 mi West 10.4 mph - N/A   Clear
7:15 PM 24.8 °F 15.3 °F 23.0 °F 93% 30.26 in 10.0 mi West 9.2 mph - N/A   Clear
7:35 PM 26.6 °F 18.2 °F 24.8 °F 93% 30.26 in 10.0 mi West 8.1 mph - N/A   Clear
7:55 PM 24.8 °F 15.3 °F 23.0 °F 93% 30.26 in 10.0 mi West 9.2 mph - N/A   Clear
8:15 PM 24.8 °F 14.6 °F 23.0 °F 93% 30.26 in 10.0 mi West 10.4 mph - N/A   Clear
8:35 PM 26.6 °F 16.8 °F 23.0 °F 86% 30.27 in 10.0 mi West 10.4 mph - N/A   Clear
8:55 PM 24.8 °F 15.3 °F 23.0 °F 93% 30.27 in 10.0 mi West 9.2 mph - N/A   Clear
9:15 PM 23.0 °F 13.1 °F 21.2 °F 93% 30.27 in 10.0 mi WNW 9.2 mph - N/A   Clear
9:35 PM 23.0 °F 13.9 °F 21.2 °F 93% 30.28 in 10.0 mi WNW 8.1 mph - N/A   Clear
9:55 PM 21.2 °F 10.9 °F 21.2 °F 100% 30.29 in 10.0 mi West 9.2 mph - N/A   Clear
10:15 PM 21.2 °F 9.5 °F 21.2 °F 100% 30.29 in 10.0 mi West 11.5 mph - N/A   Clear
10:35 PM 21.2 °F 8.3 °F 21.2 °F 100% 30.29 in 10.0 mi West 13.8 mph - N/A   Clear
10:55 PM 23.0 °F 10.6 °F 21.2 °F 93% 30.29 in 10.0 mi WNW 13.8 mph - N/A   Clear
11:15 PM 21.2 °F 8.9 °F 19.4 °F 93% 30.30 in 10.0 mi WNW 12.7 mph - N/A   Clear
11:35 PM 23.0 °F 11.1 °F 21.2 °F 93% 30.31 in 10.0 mi WNW 12.7 mph - N/A   Clear
11:55 PM 23.0 °F 10.6 °F 19.4 °F 86% 30.31 in 10.0 mi WNW 13.8 mph - N/A   Clear